Location: Mountain Grove
(34.0887°N, 86.6172°W)
Time: 22:00:58
(UTC+00:00)

ATLAS 3B R/B - Pass Details

Date: 14 July 2020
Orbit: 1021 x 1174 km, 63.8° (Epoch: 05 August)

Event Time Altitude Azimuth Distance (km) Brightness Sun altitude
Exits shadow 09:14:10 - 173° (S) 3,575 5.1 -16.5°
Reaches altitude 10° 09:16:37 10° 162° (SSE) 2,819 4.7 -16.1°
Maximum altitude 09:21:51 25° 109° (ESE) 1,912 4.4 -15.3°
Drops below altitude 10° 09:27:04 10° 57° (ENE) 2,810 6.3 -14.5°
Sets 09:30:07 0° 44° (NE) 3,769 7.5 -14.0°
